This demonstration page uses our WeatherBlox Daily Observations layout. Learn more.

Left ArrowRight Arrow

38.20091, -84.87328

Hourly Observations for October 16, 2021

Temp ( °F °C ) Dew Point ( °F °C ) Humidity (%) Winds ( mph kmh ) Pressure ( in mb ) Visibility ( mi km ) Precip ( " mm )
12:34 am 00:34 Cloudy with Light Rain 70 21.1 65 18.3 84 84 WNW 10 17 29.77 1008 10 16 0.00 0.00
12:53 am 00:53 Cloudy 66 18.9 62 16.7 87 87 NW 16 26 29.77 1008 10 16 0.00 0.00
1:53 am 01:53 Cloudy with Light Rain 64 17.8 61 16.1 90 90 W 3 6 29.79 1009 10 16 0.00 0.00
2:53 am 02:53 Cloudy with Light Rain 63 17.2 61 16.1 93 93 W 5 7 29.80 1009 10 16 0.01 0.25
3:16 am 03:16 Cloudy with Light Rain 63 17.2 61 16.1 93 93 W 7 11 29.80 1009 4 6 0.02 0.51
3:22 am 03:22 Cloudy with Rain 63 17.2 61 16.1 93 93 WNW 7 11 29.79 1009 4 6 0.03 0.76
3:33 am 03:33 Cloudy with Light Rain 63 17.2 61 16.1 93 93 NW 13 20 29.81 1009 4 6 0.05 1.27
3:53 am 03:53 Cloudy with Light Rain 61 16.1 59 15 93 93 WNW 16 26 29.82 1010 6 10 0.07 1.78
4:25 am 04:25 Cloudy with Light Rain 58 14.4 55 12.8 90 90 NW 13 20 29.85 1011 10 16 0.02 0.51
4:53 am 04:53 Cloudy 57 13.9 54 12.2 90 90 NW 13 20 29.85 1011 10 16 0.02 0.51
5:01 am 05:01 Cloudy 57 13.9 54 12.2 90 90 NW 12 19 29.87 1011 10 16 N/A
5:17 am 05:17 Cloudy 57 13.9 54 12.2 90 90 NW 10 17 29.88 1012 10 16 N/A
5:25 am 05:25 Cloudy 57 13.9 54 12.2 90 90 WNW 9 15 29.89 1012 10 16 N/A
5:53 am 05:53 Cloudy 56 13.3 53 11.7 90 90 NW 15 24 29.89 1012 10 16 N/A
6:06 am 06:06 Cloudy 55 12.8 52 11.1 90 90 NW 14 22 29.91 1013 10 16 N/A
6:53 am 06:53 Cloudy 54 12.2 49 9.4 83 83 NW 14 22 29.93 1013 10 16 N/A
7:15 am 07:15 Cloudy 54 12.2 48 8.9 80 80 NW 8 13 29.96 1015 10 16 N/A
7:53 am 07:53 Partly Cloudy 52 11.1 47 8.3 83 83 WNW 6 9 29.98 1015 10 16 N/A
8:53 am 08:53 Sunny 52 11.1 47 8.3 83 83 W 7 11 30.01 1016 10 16 N/A
9:53 am 09:53 Sunny 54 12.2 47 8.3 77 77 WNW 8 13 30.03 1017 10 16 N/A
10:53 am 10:53 Sunny 56 13.3 44 6.7 65 65 WNW 12 19 30.04 1017 10 16 N/A
11:53 am 11:53 Sunny 57 13.9 39 3.9 51 51 WNW 16 26 30.06 1018 10 16 N/A
12:53 pm 12:53 Sunny 59 15 37 2.8 44 44 W 9 15 30.07 1018 10 16 N/A
1:53 pm 13:53 Sunny 61 16.1 37 2.8 41 41 NW 13 20 30.06 1018 10 16 N/A
2:53 pm 14:53 Sunny 62 16.7 36 2.2 38 38 W 13 20 30.05 1018 10 16 N/A
3:53 pm 15:53 Partly Cloudy 61 16.1 34 1.1 36 36 WNW 13 20 30.06 1018 10 16 N/A
4:53 pm 16:53 Mostly Cloudy 62 16.7 35 1.7 37 37 WNW 9 15 30.07 1018 10 16 N/A
5:53 pm 17:53 Partly Cloudy 59 15 36 2.2 42 42 WNW 8 13 30.08 1019 10 16 N/A
6:53 pm 18:53 Mostly Cloudy 58 14.4 37 2.8 46 46 WNW 6 9 30.08 1019 10 16 N/A
7:53 pm 19:53 Clear 53 11.7 40 4.4 61 61 W 3 6 30.10 1019 10 16 N/A
8:53 pm 20:53 Clear 52 11.1 40 4.4 64 64 W 6 9 30.12 1020 10 16 N/A
9:53 pm 21:53 Clear 51 10.6 40 4.4 66 66 WNW 5 7 30.14 1021 10 16 N/A
10:53 pm 22:53 Clear 49 9.4 40 4.4 71 71 W 3 6 30.16 1021 10 16 N/A
11:53 pm 23:53 Clear 49 9.4 40 4.4 71 71 W 3 6 30.16 1021 10 16 N/A

Powered by AerisWeather